Terminal Aerodrome Forecast
Issued by NWS Denver/Boulder, CO

Home | Current Version | Previous Version | Text Only | Print | Product List | Glossary On
Versions: 1 2 3 4 5 6 7 8 9 10 11 12 13 14 15 16 17 18 19 20 21 22 23 24 25 26 27 28 29 30 31 32 33 34 35 36 37 38 39 40 41 42 43 44 45 46 47 48 49 50
000
FTUS45 KBOU 231624 AAC
TAFDEN
TAF AMD
KDEN 231624Z 2316/2418 33024G37KT P6SM SCT070 BKN100
     FM232300 33015G25KT P6SM FEW070 BKN120
     FM240100 30010KT P6SM SCT100 SCT200
     FM240400 21011KT P6SM FEW120 FEW200=

USA.gov is the U.S. government's official web portal to all federal, state and local government web resources and services.